Flight Track Log - Related Links

Times and Time Zones

All times are in EDT time to prevent confusion due to time zone crossing. See the UAL4191 flight status page for this flight to view local times or setup timezone preferences in your user account.

Time Position Orientation Groundspeed Altitude Reporting Facility
EDT Latitude Longitude Course Direction KTS MPH feet Rate Location/Type
Wed 11:26:06 AM 32.3042 -95.2997 159° South 249 287 4,900  Level Fort Worth Center
Wed 11:27:00 AM 32.1833 -95.1786 90° East  Level FlightAware Approximate
Wed 11:27:06 AM 32.2511 -95.2517 143° Southeast 274 315 7,100  Level Fort Worth Center
Wed 11:28:00 AM 32.1242 -95.1130 161° South  Level FlightAware Approximate
Wed 11:28:06 AM 32.1669 -95.2119 158° South 280 322 10,100  Level Fort Worth Center
Wed 11:29:00 AM 32.0435 -95.0804 159° South  Level FlightAware Approximate
Wed 11:29:07 AM 32.0869 -95.1722 157° South 294 338 11,800  Level Fort Worth Center
Wed 11:30:00 AM 31.9637 -95.0450 159° South  Level FlightAware Approximate
Wed 11:30:06 AM 31.9986 -95.1278 157° South 319 367 13,800  Level Fort Worth Center
Wed 11:31:00 AM 31.8840 -95.0094 159° South  Level FlightAware Approximate
Wed 11:31:06 AM 31.9058 -95.0811 157° South 343 395 15,000  Level Fort Worth Center
Wed 11:32:38 AM 31.7472 -95.0011 157° South 413 475 15,000  Level Houston Center
Wed 11:33:40 AM 31.6553 -94.9567 158° South 404 465 15,000  Level Houston Center
Wed 11:34:42 AM 31.5322 -94.8964 157° South 398 458 15,000  Level Houston Center
Wed 11:35:44 AM 31.4278 -94.8458 158° South 404 465 15,000  Level Houston Center
Wed 11:36:46 AM 31.3233 -94.7956 158° South 405 466 15,000  Level Houston Center
Wed 11:37:48 AM 31.2275 -94.7483 157° South 413 475 15,000  Level Houston Center
Wed 11:38:50 AM 31.0956 -94.6922 160° South 416 479 15,000  Level Houston Center
Wed 11:39:52 AM 30.9875 -94.6522 162° South 411 473 15,000  Level Houston Center
Wed 11:40:54 AM 30.8792 -94.6122 162° South 409 471 15,000  Level Houston Center
Wed 11:41:56 AM 30.7697 -94.5708 162° South 410 472 15,000  Level Houston Center
Wed 11:42:46 AM 30.6647 -94.5339 163° South 416 479 15,000  Level Houston Center
Wed 11:43:53 AM 30.5469 -94.4911 163° South 417 480 15,000 -132 Level Houston Center
Wed 11:45:02 AM 30.4231 -94.4536 165° South 407 468 14,700 -590 Descending Houston Center
Wed 11:45:55 AM 30.3314 -94.4997 203° Southwest 375 432 13,800 -1,053 Descending Houston Center
Wed 11:46:56 AM 30.2644 -94.5883 229° Southwest 365 420 12,700 -1,082 Descending Houston Center
Wed 11:47:57 AM 30.1981 -94.6861 232° Southwest 369 425 11,600 -1,082 Descending Houston Center
Wed 11:48:58 AM 30.1397 -94.7783 234° Southwest 342 394 10,500 -983 Descending Houston Center
Wed 11:49:53 AM 30.0936 -94.8444 231° Southwest 271 312 9,700 -973 Descending Houston Center
Wed 11:50:12 AM 30.0878 -94.8561 240° Southwest 289 333 9,300 -2,323 Descending Houston Center
Wed 11:50:55 AM 30.0497 -94.9128 232° Southwest 266 306 7,300 -2,323 Descending Houston Center
Wed 11:51:14 AM 30.0433 -94.9247 238° Southwest 268 308 6,900 -1,672 Descending Houston Center
Wed 11:51:56 AM 30.0072 -94.9761 231° Southwest 224 258 5,600 -1,645 Descending Houston Center
Wed 11:52:16 AM 29.9978 -94.9953 240° Southwest 233 268 5,200 -590 Descending Houston Center
Wed 11:52:57 AM 29.9917 -95.0336 260° West 179 206 5,000 -484 Descending Houston Center
Wed 11:53:18 AM 29.9933 -95.0522 276° West 190 219 4,700 -800 Descending Houston Center
Wed 11:53:57 AM 29.9933 -95.0961 270° West 191 220 4,200 -968 Descending Houston Center
Wed 11:54:20 AM 29.9931 -95.1142 269° West 191 220 3,700 -1,065 Descending Houston Center
Wed 11:54:59 AM 29.9928 -95.1564 270° West 190 219 3,100 -923 Descending Houston Center

Login

Don't have an account? Register now (free) for customized features, flight alerts, and more!